Petersburg, AK

5:15 PM AKST on January 22, 2018 (GMT -0900)
Johnson Petersburg

Weather History for PAPG - August, 2013

Change the Weather History Date:

Tuesday, August 13, 2013

  Actual Average Record
Temperature  
Mean Temperature 56 °F -  
Max Temperature 62 °F 60 °F 78 °F (2005)
Min Temperature 51 °F 48 °F 42 °F (1987)
Degree Days  
Heating Degree Days 8    
Growing Degree Days 6 (Base 50)    
Moisture  
Dew Point 54 °F    
Average Humidity 85    
Maximum Humidity 94    
Minimum Humidity 72    
Precipitation  
Precipitation 0.00 in - - ()
Sea Level Pressure  
Sea Level Pressure 30.05 in    
Wind  
Wind Speed 1 mph (NE)    
Max Wind Speed 4 mph    
Max Gust Speed -    
Visibility 9 miles    
Events      
Averages and records for this station are not official NWS values.
T = Trace of Precipitation, MM = Missing Value Source: NWS Daily Summary

Daily Weather History Graph

Daily Weather History Graph

Search for Another Location

Airport or City:

Trip Planner

Search our weather history database for the weather conditions in past years. The results will help you decide how hot, cold, wet, or windy it might be!

Date:

Astronomy

Aug. 13, 2013 Rise Set
Actual Time 5:16 AM AKDT 8:35 PM AKDT
Civil Twilight 4:31 AM AKDT 9:20 PM AKDT
Nautical Twilight 3:28 AM AKDT 10:21 PM AKDT
Astronomical Twilight 1:42 AM AKDT 12:01 AM AKDT
Moon 1:54 PM AKDT (8/13) 10:37 PM AKDT (8/13)
Length of Visible Light 16h 49m
Length of Day
15h 18m
Waxing Crescent, 43% of the Moon is Illuminated
Aug 13
Waxing Crescent
Aug 14
First Quarter
Aug 20
Full
Aug 28
Last Quarter
Sep 5
New

Hourly Weather History & Observations

Time (AKDT) Temp. Dew Point Humidity Pressure Visibility Wind Dir Wind Speed Gust Speed Precip Events Conditions
5:56 AM 51.8 °F 48.2 °F 88% 30.03 in 9.0 mi Calm Calm - N/A   Unknown
6:36 AM 53.6 °F 51.8 °F 94% 30.04 in 10.0 mi WSW 3.5 mph - N/A   Mostly Cloudy
6:55 AM 55.4 °F 51.8 °F 88% 30.04 in 10.0 mi Calm Calm - N/A   Mostly Cloudy
7:55 AM 57.2 °F 53.6 °F 88% 30.04 in 10.0 mi Calm Calm - N/A   Mostly Cloudy
8:16 AM 57.2 °F 53.6 °F 88% 30.04 in 10.0 mi NE 3.5 mph - N/A   Mostly Cloudy
8:55 AM 57.2 °F 53.6 °F 88% 30.05 in 10.0 mi Calm Calm - N/A   Overcast
9:55 AM 60.8 °F 55.4 °F 82% 30.05 in 10.0 mi NNE 3.5 mph - N/A   Overcast
10:55 AM 57.2 °F 51.8 °F 82% 30.06 in 10.0 mi Calm Calm - N/A   Overcast
11:55 AM 62.6 °F 53.6 °F 72% 30.06 in 10.0 mi Calm Calm - N/A   Overcast
1:56 PM 62.6 °F 55.4 °F 77% 30.07 in 10.0 mi ENE 3.5 mph - N/A   Overcast
1:57 PM 62.6 °F 55.4 °F 77% 30.07 in 10.0 mi NNE 3.5 mph - N/A   Overcast
2:16 PM 62.6 °F 55.4 °F 77% 30.07 in 10.0 mi ENE 3.5 mph - N/A   Overcast
2:55 PM 60.8 °F 55.4 °F 82% 30.07 in 7.0 mi NNE 3.5 mph - N/A   Overcast
3:55 PM 60.8 °F 55.4 °F 82% 30.06 in 10.0 mi NE 3.5 mph - N/A   Overcast
4:55 PM - - N/A% 30.06 in 7.0 mi Calm Calm - N/A   Overcast
5:53 PM 60.8 °F 55.4 °F 82% 30.06 in 7.0 mi Calm Calm - N/A   Overcast
6:55 PM 59.0 °F 55.4 °F 88% 30.06 in 7.0 mi Calm Calm - N/A   Overcast
7:55 PM 60.8 °F 55.4 °F 82% 30.05 in 10.0 mi Calm Calm - N/A   Overcast
8:55 PM 59.0 °F 55.4 °F 88% 30.04 in 10.0 mi WSW 3.5 mph - N/A   Overcast
9:16 PM 59.0 °F 55.4 °F 88% 30.04 in 10.0 mi Calm Calm - N/A   Overcast
9:55 PM 57.2 °F 53.6 °F 88% 30.04 in 10.0 mi Calm Calm - N/A   Overcast
11:16 PM 57.2 °F 55.4 °F 94% 30.03 in 10.0 mi Calm Calm - N/A   Overcast
11:36 PM 57.2 °F 53.6 °F 88% 30.03 in 10.0 mi Calm Calm - N/A   Overcast